Maya-3
1 49273U 98067SS  22013.31461248  .00021507  00000-0  33408-3 0  9998
2 49273  51.6416  21.5478 0005658  86.3609 273.8029 15.53880609 15454
Maya-4
1 49274U 98067ST  22013.31785029  .00021175  00000-0  32987-3 0  9997
2 49274  51.6416  21.5693 0005599  85.1516 275.0114 15.53811844 15456
CUAVA-1
1 49275U 98067SU  22013.84138132  .00019978  00000-0  31303-3 0  9992
2 49275  51.6445  18.9267 0005407  96.4743 325.6297 15.53694193 15484
TeikyoSat 4
1 49396U 21102B   22013.90917056  .00000674  00000-0  58209-4 0  9997
2 49396  97.5538  76.5910 0019227  53.6491 306.6504 15.00297023  9874
Z-Sat
1 49399U 21102E   22013.90123173  .00000566  00000-0  47485-4 0  9993
2 49399  97.5636  76.7941 0021926  40.0082 320.2753 15.02043189  9880
KOSEN 1
1 49402U 21102H   22013.86251234  .00000930  00000-0  73360-4 0  9999
2 49402  97.5518  76.7929 0023140  27.6092 332.6357 15.02908482  9885
HO-113
1 50466U 21131B   22013.75178434 -.00000054  00000-0 -29313-5 0  9990
2 50466  98.5963  90.9909 0003645 236.8280 123.2548 14.38435312  2670
